Zurück zum Katalog

STARLINK-36228

AktivKommunikationVLEO
NORAD 67096·PAYLOAD·🇺🇸 United States

Gestartet Dec 14, 2025 von Vandenberg Space Force Base

Loading…

Nächste Überflüge (nächste 24 Stunden)

TLE

AktuellSource: CelesTrak SupGP

Epoche: Sep 15, 2026, 02:51 UTC

1 67096C 25298X   26258.11923611 -.00042081  00000+0 -35265-2 0  2588
2 67096  69.9996 256.8791 0004237 267.5032 351.5699 14.98348427    16

Verfolge STARLINK-36228 in Echtzeit mit AllMySat

Download on the App Store